Terminal Aerodrome Forecast
Issued by NWS North Platte, NE

Home | Current Version | Previous Version | Graphics & Text | Print | Product List | Glossary On
Versions: 1 2 3 4 5 6 7 8 9 10 11 12 13 14 15 16 17 18
000
FTUS43 KLBF 181205 AAA
TAFVTN
TAF AMD
KVTN 181205Z 1812/1912 33014G19KT P6SM SCT045 BKN120
     FM181400 32016G24KT P6SM OVC010
     FM182000 33016G23KT P6SM BKN025
     FM182200 33014G20KT P6SM BKN045
     FM190000 33010KT P6SM SCT050
     FM191100 VRB03KT P6SM SCT035=

USA.gov is the U.S. government's official web portal to all federal, state and local government web resources and services.